Location: ?????????
(53.2086°N, 54.0693°E)
Time: 16:28:03
(UTC+00:00)

Cosmos 1553 Rocket - Pass Details

Date: 08 December 2019
Orbit: 942 x 1007 km, 82.9° (Epoch: 27 January)

Event Time Altitude Azimuth Distance (km) Brightness Sun altitude
Rises 15:01:46 0° 349° (N) 3,707 7.1 -24.8°
Reaches altitude 10° 15:04:17 10° 350° (N) 2,764 6.4 -25.2°
Maximum altitude 15:10:40 85° 79° (E) 1,011 3.9 -26.2°
Drops below altitude 10° 15:17:04 10° 169° (S) 2,776 6.3 -27.1°
Sets 15:19:36 0° 170° (S) 3,725 7.0 -27.5°
